CAS9311 KATL-KDCA

Flight info

Callsign CAS9311
Flight time 1h 21m
Altitude 41000
Route JACCC2 KELLN Q56 KIWII WAVES CAPSS4
Aircraft B736/M-SDE2E3FGHIRWXY/LB1

Departure

Time 2026-05-05 10:31
Airport Hartsfield Jackson Atlanta International Airport (KATL)

Arrival

Time 2026-05-05 11:52
Airport Ronald Reagan Washington National Airport (KDCA)
Time Latitude Longitude Altitude Speed Heading
2026-05-05 10:01 33.63863 -84.42032 978 ft 0 kts 90°
2026-05-05 10:22 33.63863 -84.42048 979 ft 2 kts 90°
2026-05-05 10:22 33.63863 -84.42066 980 ft 2 kts 90°
2026-05-05 10:23 33.63864 -84.42084 981 ft 2 kts 104°
2026-05-05 10:23 33.63869 -84.42101 982 ft 2 kts 117°
2026-05-05 10:23 33.63877 -84.42117 983 ft 2 kts 131°
2026-05-05 10:23 33.63887 -84.42129 983 ft 2 kts 144°
2026-05-05 10:24 33.63900 -84.42138 983 ft 2 kts 158°
2026-05-05 10:24 33.63914 -84.42143 983 ft 2 kts 172°
2026-05-05 10:24 33.63924 -84.42144 983 ft 0 kts 181°
2026-05-05 10:24 33.63931 -84.42144 983 ft 0 kts 183°
2026-05-05 10:26 33.63918 -84.42145 983 ft 3 kts 183°
2026-05-05 10:26 33.63893 -84.42145 984 ft 4 kts 181°
2026-05-05 10:27 33.63855 -84.42145 985 ft 6 kts 180°
2026-05-05 10:27 33.63811 -84.42146 986 ft 6 kts 181°
2026-05-05 10:27 33.63759 -84.42146 986 ft 8 kts 181°
2026-05-05 10:27 33.63699 -84.42145 986 ft 8 kts 179°
2026-05-05 10:28 33.63638 -84.42141 986 ft 8 kts 173°
2026-05-05 10:28 33.63578 -84.42110 986 ft 10 kts 116°
2026-05-05 10:28 33.63581 -84.42009 982 ft 11 kts 88°
2026-05-05 10:28 33.63582 -84.41914 976 ft 11 kts 90°
2026-05-05 10:29 33.63576 -84.41817 971 ft 11 kts 107°
2026-05-05 10:29 33.63530 -84.41767 970 ft 6 kts 165°
2026-05-05 10:29 33.63486 -84.41770 971 ft 6 kts 209°
2026-05-05 10:29 33.63472 -84.41795 972 ft 2 kts 259°
2026-05-05 10:30 33.63473 -84.41840 974 ft 17 kts 271°
2026-05-05 10:30 33.63468 -84.42261 992 ft 83 kts 269°
2026-05-05 10:30 33.63469 -84.43196 1011 ft 138 kts 269°
2026-05-05 10:30 33.63456 -84.44463 1353 ft 157 kts 267°
2026-05-05 10:31 33.63455 -84.45783 1927 ft 163 kts 267°
2026-05-05 10:31 33.63320 -84.47168 2434 ft 177 kts 250°
2026-05-05 10:31 33.62777 -84.48604 2752 ft 202 kts 244°
2026-05-05 10:31 33.62154 -84.50216 3088 ft 228 kts 244°
2026-05-05 10:32 33.61438 -84.52016 3687 ft 245 kts 243°
2026-05-05 10:32 33.60674 -84.53900 4362 ft 259 kts 243°
2026-05-05 10:32 33.59828 -84.55797 5200 ft 265 kts 235°
2026-05-05 10:32 33.58599 -84.57417 6064 ft 268 kts 217°
2026-05-05 10:33 33.56938 -84.58363 6914 ft 271 kts 193°
2026-05-05 10:33 33.55051 -84.58611 7797 ft 274 kts 182°
2026-05-05 10:33 33.53146 -84.58584 8605 ft 279 kts 179°
2026-05-05 10:33 33.51215 -84.58485 9406 ft 283 kts 175°
2026-05-05 10:34 33.49296 -84.57962 10179 ft 288 kts 160°
2026-05-05 10:34 33.47590 -84.56758 10933 ft 293 kts 141°
2026-05-05 10:34 33.46301 -84.54802 11403 ft 311 kts 116°
2026-05-05 10:34 33.45726 -84.52200 11533 ft 338 kts 98°
2026-05-05 10:35 33.45595 -84.49312 11844 ft 357 kts 92°
2026-05-05 10:35 33.45594 -84.46330 12510 ft 363 kts 91°
2026-05-05 10:35 33.45600 -84.43272 13231 ft 367 kts 91°
2026-05-05 10:35 33.45599 -84.40231 13931 ft 370 kts 91°
2026-05-05 10:36 33.45655 -84.37127 14628 ft 375 kts 87°
2026-05-05 10:36 33.46036 -84.34055 15298 ft 379 kts 78°
2026-05-05 10:36 33.46871 -84.31056 15949 ft 384 kts 67°
2026-05-05 10:36 33.48043 -84.28169 16615 ft 387 kts 63°
2026-05-05 10:37 33.49295 -84.25326 17229 ft 391 kts 63°
2026-05-05 10:37 33.50594 -84.22420 17863 ft 395 kts 63°
2026-05-05 10:37 33.51888 -84.19524 18482 ft 398 kts 63°
2026-05-05 10:37 33.53190 -84.16610 19084 ft 402 kts 63°
2026-05-05 10:38 33.54510 -84.13653 19686 ft 405 kts 63°
2026-05-05 10:38 33.55843 -84.10662 20274 ft 409 kts 63°
2026-05-05 10:38 33.57178 -84.07665 20850 ft 412 kts 63°
2026-05-05 10:38 33.58528 -84.04633 21409 ft 415 kts 63°
2026-05-05 10:39 33.59897 -84.01553 21965 ft 419 kts 63°
2026-05-05 10:39 33.61254 -83.98500 22495 ft 422 kts 63°
2026-05-05 10:39 33.62634 -83.95390 23024 ft 425 kts 63°
2026-05-05 10:39 33.64024 -83.92255 23544 ft 428 kts 63°
2026-05-05 10:40 33.65434 -83.89075 24056 ft 431 kts 63°
2026-05-05 10:40 33.66846 -83.85885 24558 ft 435 kts 63°
2026-05-05 10:40 33.68257 -83.82694 25047 ft 438 kts 63°
2026-05-05 10:40 33.69680 -83.79475 25527 ft 441 kts 63°
2026-05-05 10:41 33.71120 -83.76211 26000 ft 444 kts 63°
2026-05-05 10:41 33.72572 -83.72920 26458 ft 447 kts 63°
2026-05-05 10:41 33.74018 -83.69637 26899 ft 450 kts 63°
2026-05-05 10:41 33.75470 -83.66340 27325 ft 452 kts 63°
2026-05-05 10:42 33.78720 -83.59813 28151 ft 458 kts 57°
2026-05-05 10:42 33.80455 -83.56625 28560 ft 460 kts 57°
2026-05-05 10:42 33.82211 -83.53394 29058 ft 460 kts 57°
2026-05-05 10:43 33.83941 -83.50195 29557 ft 459 kts 57°
2026-05-05 10:43 33.85667 -83.46994 30049 ft 458 kts 57°
2026-05-05 10:43 33.87387 -83.43793 30527 ft 457 kts 57°
2026-05-05 10:43 33.89095 -83.40608 30990 ft 455 kts 57°
2026-05-05 10:44 33.90820 -83.37385 31445 ft 454 kts 57°
2026-05-05 10:44 33.92512 -83.34219 31879 ft 453 kts 58°
2026-05-05 10:44 33.94217 -83.31024 32300 ft 452 kts 58°
2026-05-05 10:44 33.95909 -83.27849 32707 ft 451 kts 58°
2026-05-05 10:45 33.97598 -83.24675 33102 ft 450 kts 58°
2026-05-05 10:45 33.99265 -83.21539 33479 ft 449 kts 58°
2026-05-05 10:45 34.00953 -83.18360 33848 ft 448 kts 58°
2026-05-05 10:45 34.02613 -83.15231 34197 ft 448 kts 58°
2026-05-05 10:46 34.04296 -83.12055 34544 ft 447 kts 58°
2026-05-05 10:46 34.05960 -83.08912 34877 ft 446 kts 58°
2026-05-05 10:46 34.07624 -83.05765 35197 ft 445 kts 58°
2026-05-05 10:46 34.09281 -83.02629 35505 ft 444 kts 58°
2026-05-05 10:47 34.10923 -82.99519 35798 ft 444 kts 58°
2026-05-05 10:47 34.12576 -82.96384 36081 ft 443 kts 58°
2026-05-05 10:47 34.14229 -82.93233 36342 ft 443 kts 58°
2026-05-05 10:47 34.15851 -82.90129 36584 ft 442 kts 58°
2026-05-05 10:48 34.17504 -82.86963 36818 ft 442 kts 58°
2026-05-05 10:48 34.19114 -82.83876 37035 ft 442 kts 58°
2026-05-05 10:48 34.20755 -82.80729 37252 ft 442 kts 58°
2026-05-05 10:48 34.22398 -82.77574 37459 ft 442 kts 58°
2026-05-05 10:49 34.24025 -82.74447 37654 ft 442 kts 58°
2026-05-05 10:49 34.25666 -82.71292 37846 ft 442 kts 58°
2026-05-05 10:49 34.27281 -82.68182 38025 ft 442 kts 58°
2026-05-05 10:49 34.28911 -82.65043 38199 ft 442 kts 58°
2026-05-05 10:50 34.30534 -82.61913 38368 ft 442 kts 58°
2026-05-05 10:50 34.32169 -82.58758 38527 ft 442 kts 58°
2026-05-05 10:50 34.33803 -82.55603 38683 ft 442 kts 58°
2026-05-05 10:50 34.35418 -82.52480 38830 ft 442 kts 58°
2026-05-05 10:51 34.37056 -82.49311 38973 ft 442 kts 58°
2026-05-05 10:51 34.38677 -82.46172 39111 ft 442 kts 58°
2026-05-05 10:51 34.40307 -82.43012 39241 ft 442 kts 58°
2026-05-05 10:51 34.41915 -82.39893 39368 ft 442 kts 58°
2026-05-05 10:52 34.43541 -82.36736 39487 ft 442 kts 58°
2026-05-05 10:52 34.45151 -82.33546 39605 ft 442 kts 61°
2026-05-05 10:52 34.46646 -82.30326 39715 ft 441 kts 62°
2026-05-05 10:52 34.48122 -82.27068 39821 ft 441 kts 62°
2026-05-05 10:53 34.49591 -82.23814 39923 ft 441 kts 62°
2026-05-05 10:53 34.52609 -82.17390 40103 ft 442 kts 57°
2026-05-05 10:54 34.56169 -82.11309 40288 ft 442 kts 54°
2026-05-05 10:54 34.59784 -82.05353 40448 ft 442 kts 54°
2026-05-05 10:55 34.63417 -81.99370 40604 ft 442 kts 54°
2026-05-05 10:55 34.67070 -81.93349 40756 ft 442 kts 54°
2026-05-05 10:56 34.70685 -81.87383 40915 ft 442 kts 54°
2026-05-05 10:56 34.74345 -81.81332 40909 ft 446 kts 54°
2026-05-05 10:57 34.78009 -81.75265 40909 ft 450 kts 54°
2026-05-05 10:57 34.81721 -81.69109 40908 ft 453 kts 54°
2026-05-05 10:58 34.85453 -81.62909 40907 ft 456 kts 54°
2026-05-05 10:58 34.89194 -81.56683 40907 ft 455 kts 54°
2026-05-05 10:59 34.92899 -81.50507 40908 ft 455 kts 54°
2026-05-05 10:59 34.96607 -81.44315 40908 ft 455 kts 54°
2026-05-05 11:00 35.00333 -81.38081 40907 ft 455 kts 54°
2026-05-05 11:00 35.04028 -81.31889 40908 ft 455 kts 54°
2026-05-05 11:01 35.07739 -81.25659 40908 ft 455 kts 54°
2026-05-05 11:01 35.11443 -81.19430 40908 ft 455 kts 54°
2026-05-05 11:02 35.15142 -81.13200 40908 ft 455 kts 54°
2026-05-05 11:02 35.18822 -81.06989 40908 ft 455 kts 54°
2026-05-05 11:03 35.22524 -81.00736 40908 ft 455 kts 54°
2026-05-05 11:03 35.26233 -80.94465 40908 ft 455 kts 54°
2026-05-05 11:04 35.29914 -80.88230 40908 ft 455 kts 54°
2026-05-05 11:04 35.33600 -80.81976 40908 ft 455 kts 54°
2026-05-05 11:05 35.37299 -80.75688 40908 ft 455 kts 54°
2026-05-05 11:05 35.40981 -80.69417 40908 ft 455 kts 54°
2026-05-05 11:06 35.44660 -80.63140 40908 ft 455 kts 54°
2026-05-05 11:06 35.48330 -80.56866 40908 ft 455 kts 54°
2026-05-05 11:07 35.51996 -80.50590 40908 ft 455 kts 54°
2026-05-05 11:07 35.55685 -80.44261 40908 ft 455 kts 54°
2026-05-05 11:08 35.59332 -80.37994 40908 ft 455 kts 54°
2026-05-05 11:08 35.62993 -80.31693 40908 ft 455 kts 55°
2026-05-05 11:09 35.66663 -80.25363 40908 ft 455 kts 55°
2026-05-05 11:09 35.70324 -80.19039 40908 ft 455 kts 55°
2026-05-05 11:10 35.73978 -80.12716 40908 ft 455 kts 55°
2026-05-05 11:10 35.77618 -80.06401 40908 ft 455 kts 55°
2026-05-05 11:11 35.81265 -80.00056 40908 ft 455 kts 55°
2026-05-05 11:11 35.84901 -79.93716 40908 ft 455 kts 55°
2026-05-05 11:12 35.88520 -79.87392 40908 ft 455 kts 55°
2026-05-05 11:12 35.92157 -79.81041 40908 ft 455 kts 54°
2026-05-05 11:13 35.95861 -79.74724 40908 ft 455 kts 54°
2026-05-05 11:13 35.99559 -79.68428 40908 ft 455 kts 54°
2026-05-05 11:14 36.03270 -79.62093 40908 ft 455 kts 54°
2026-05-05 11:14 36.06948 -79.55800 40908 ft 455 kts 54°
2026-05-05 11:15 36.10625 -79.49495 40908 ft 455 kts 54°
2026-05-05 11:15 36.14323 -79.43141 40908 ft 455 kts 54°
2026-05-05 11:16 36.18002 -79.36812 40908 ft 455 kts 54°
2026-05-05 11:16 36.21683 -79.30474 40908 ft 455 kts 55°
2026-05-05 11:17 36.25360 -79.24136 40908 ft 455 kts 55°
2026-05-05 11:17 36.29020 -79.17812 40908 ft 455 kts 55°
2026-05-05 11:18 36.32711 -79.11423 40908 ft 455 kts 55°
2026-05-05 11:18 36.36359 -79.05097 40908 ft 455 kts 55°
2026-05-05 11:19 36.40040 -78.98701 40908 ft 455 kts 55°
2026-05-05 11:19 36.43695 -78.92338 40908 ft 455 kts 55°
2026-05-05 11:20 36.47355 -78.85950 40908 ft 455 kts 55°
2026-05-05 11:20 36.50976 -78.79591 40908 ft 455 kts 55°
2026-05-05 11:21 36.54647 -78.73156 40907 ft 455 kts 54°
2026-05-05 11:21 36.58632 -78.67133 40909 ft 455 kts 47°
2026-05-05 11:22 36.63018 -78.61504 40908 ft 455 kts 45°
2026-05-05 11:22 36.67508 -78.55939 40908 ft 455 kts 45°
2026-05-05 11:23 36.72012 -78.50451 40908 ft 455 kts 44°
2026-05-05 11:23 36.76557 -78.44951 40908 ft 455 kts 44°
2026-05-05 11:24 36.81077 -78.39497 40908 ft 455 kts 44°
2026-05-05 11:24 36.85614 -78.34026 40908 ft 455 kts 44°
2026-05-05 11:25 36.90157 -78.28547 40908 ft 455 kts 44°
2026-05-05 11:25 36.94698 -78.23062 40908 ft 455 kts 44°
2026-05-05 11:26 36.99226 -78.17587 40661 ft 451 kts 44°
2026-05-05 11:26 37.01467 -78.14875 39838 ft 449 kts 44°
2026-05-05 11:26 37.03706 -78.12161 38680 ft 454 kts 44°
2026-05-05 11:26 37.05943 -78.09449 37807 ft 449 kts 44°
2026-05-05 11:27 37.08162 -78.06756 37129 ft 442 kts 44°
2026-05-05 11:27 37.10360 -78.04087 36521 ft 446 kts 44°
2026-05-05 11:27 37.12591 -78.01373 35884 ft 450 kts 44°
2026-05-05 11:27 37.14800 -77.98686 35202 ft 444 kts 44°
2026-05-05 11:28 37.17027 -77.95974 34530 ft 451 kts 44°
2026-05-05 11:28 37.19270 -77.93240 33810 ft 454 kts 44°
2026-05-05 11:28 37.21521 -77.90493 33067 ft 450 kts 44°
2026-05-05 11:28 37.23763 -77.87757 32338 ft 457 kts 44°
2026-05-05 11:29 37.26035 -77.84981 31559 ft 456 kts 44°
2026-05-05 11:29 37.28298 -77.82211 30778 ft 458 kts 44°
2026-05-05 11:29 37.30577 -77.79422 29982 ft 463 kts 44°
2026-05-05 11:29 37.32854 -77.76633 29361 ft 452 kts 44°
2026-05-05 11:30 37.35080 -77.73903 28755 ft 453 kts 44°
2026-05-05 11:30 37.37344 -77.71123 28096 ft 454 kts 44°
2026-05-05 11:30 37.39557 -77.68405 27442 ft 441 kts 44°
2026-05-05 11:30 37.41713 -77.65754 26839 ft 441 kts 44°
2026-05-05 11:31 37.43919 -77.63039 26187 ft 442 kts 44°
2026-05-05 11:31 37.46083 -77.60375 25538 ft 428 kts 44°
2026-05-05 11:31 37.48176 -77.57794 24937 ft 430 kts 44°
2026-05-05 11:31 37.50308 -77.55164 24297 ft 429 kts 44°
2026-05-05 11:32 37.52412 -77.52567 23657 ft 415 kts 44°
2026-05-05 11:32 37.54454 -77.50043 23067 ft 420 kts 44°
2026-05-05 11:32 37.56644 -77.47579 22409 ft 416 kts 38°
2026-05-05 11:32 37.58952 -77.45586 21945 ft 401 kts 30°
2026-05-05 11:33 37.61446 -77.44177 21911 ft 393 kts 18°
2026-05-05 11:33 37.64100 -77.43208 21913 ft 399 kts 14°
2026-05-05 11:33 37.66788 -77.42342 21906 ft 400 kts 13°
2026-05-05 11:33 37.69458 -77.41503 21906 ft 398 kts 13°
2026-05-05 11:34 37.72151 -77.40662 21908 ft 398 kts 13°
2026-05-05 11:34 37.74809 -77.39835 21907 ft 398 kts 13°
2026-05-05 11:34 37.77502 -77.38998 21908 ft 398 kts 13°
2026-05-05 11:34 37.80190 -77.38165 21799 ft 390 kts 13°
2026-05-05 11:35 37.82764 -77.37365 21265 ft 388 kts 13°
2026-05-05 11:35 37.85388 -77.36552 20687 ft 390 kts 13°
2026-05-05 11:35 37.87986 -77.35745 20101 ft 378 kts 13°
2026-05-05 11:35 37.90542 -77.34954 19556 ft 382 kts 14°
2026-05-05 11:36 37.93095 -77.34168 18978 ft 378 kts 13°
2026-05-05 11:36 37.95608 -77.33396 18412 ft 368 kts 13°
2026-05-05 11:36 37.98118 -77.32624 17879 ft 375 kts 13°
2026-05-05 11:36 38.00618 -77.31854 17328 ft 365 kts 13°
2026-05-05 11:37 38.03053 -77.31104 16840 ft 365 kts 13°
2026-05-05 11:37 38.05506 -77.30347 16284 ft 365 kts 13°
2026-05-05 11:37 38.07944 -77.29592 15716 ft 354 kts 14°
2026-05-05 11:37 38.10357 -77.28836 15198 ft 360 kts 14°
2026-05-05 11:38 38.12740 -77.28087 14637 ft 353 kts 14°
2026-05-05 11:38 38.15093 -77.27347 14106 ft 350 kts 14°
2026-05-05 11:38 38.17458 -77.26603 13583 ft 352 kts 14°
2026-05-05 11:38 38.19852 -77.25994 13092 ft 347 kts
2026-05-05 11:39 38.22258 -77.25672 12847 ft 349 kts
2026-05-05 11:39 38.24643 -77.25391 12601 ft 349 kts
2026-05-05 11:39 38.27043 -77.25092 12350 ft 348 kts
2026-05-05 11:39 38.29438 -77.24776 12099 ft 346 kts
2026-05-05 11:40 38.31828 -77.24453 11846 ft 345 kts
2026-05-05 11:40 38.34209 -77.24126 11593 ft 344 kts
2026-05-05 11:40 38.36556 -77.23800 11329 ft 334 kts
2026-05-05 11:40 38.38825 -77.23483 11025 ft 335 kts
2026-05-05 11:41 38.41172 -77.23155 10671 ft 338 kts
2026-05-05 11:41 38.43454 -77.22835 10225 ft 324 kts
2026-05-05 11:41 38.45622 -77.22530 10090 ft 301 kts
2026-05-05 11:41 38.47689 -77.22239 10039 ft 303 kts
2026-05-05 11:42 38.49719 -77.21953 9953 ft 289 kts
2026-05-05 11:42 38.51669 -77.21678 9692 ft 281 kts
2026-05-05 11:42 38.53648 -77.21400 9281 ft 287 kts
2026-05-05 11:42 38.55634 -77.21120 8907 ft 286 kts
2026-05-05 11:43 38.57579 -77.20845 8557 ft 284 kts
2026-05-05 11:43 38.59539 -77.20568 8204 ft 283 kts
2026-05-05 11:43 38.61493 -77.20292 7855 ft 281 kts
2026-05-05 11:43 38.63430 -77.20018 7593 ft 279 kts
2026-05-05 11:44 38.65330 -77.19750 7351 ft 280 kts
2026-05-05 11:44 38.67273 -77.19475 7100 ft 279 kts
2026-05-05 11:44 38.69199 -77.19202 6848 ft 277 kts
2026-05-05 11:44 38.71059 -77.18938 6590 ft 266 kts
2026-05-05 11:45 38.72875 -77.18681 6489 ft 262 kts
2026-05-05 11:45 38.74707 -77.18420 6365 ft 266 kts
2026-05-05 11:45 38.76550 -77.18160 6006 ft 265 kts
2026-05-05 11:45 38.78339 -77.17905 5654 ft 255 kts
2026-05-05 11:46 38.80073 -77.17658 5374 ft 248 kts
2026-05-05 11:46 38.81762 -77.17419 5018 ft 245 kts
2026-05-05 11:46 38.83418 -77.17183 4694 ft 236 kts
2026-05-05 11:46 38.85055 -77.16950 4442 ft 234 kts
2026-05-05 11:47 38.86669 -77.16721 4240 ft 230 kts
2026-05-05 11:47 38.88201 -77.16502 4047 ft 222 kts
2026-05-05 11:47 38.89722 -77.16286 3795 ft 215 kts
2026-05-05 11:47 38.91187 -77.16077 3623 ft 209 kts
2026-05-05 11:48 38.93982 -77.15215 3227 ft 208 kts 40°
2026-05-05 11:48 38.94623 -77.13700 2727 ft 184 kts 86°
2026-05-05 11:48 38.94432 -77.12183 2240 ft 169 kts 116°
2026-05-05 11:49 38.93838 -77.11022 1918 ft 144 kts 136°
2026-05-05 11:49 38.93156 -77.10218 1753 ft 128 kts 144°
2026-05-05 11:49 38.92464 -77.09490 1664 ft 131 kts 143°
2026-05-05 11:49 38.91769 -77.08726 1440 ft 130 kts 142°
2026-05-05 11:50 38.91100 -77.07961 1299 ft 129 kts 142°
2026-05-05 11:50 38.90427 -77.07179 1094 ft 130 kts 140°
2026-05-05 11:50 38.89773 -77.06374 918 ft 132 kts 140°
2026-05-05 11:50 38.89095 -77.05595 729 ft 130 kts 142°
2026-05-05 11:51 38.88415 -77.04808 506 ft 132 kts 142°
2026-05-05 11:51 38.87694 -77.04133 339 ft 127 kts 155°
2026-05-05 11:51 38.86842 -77.03919 154 ft 123 kts 183°
2026-05-05 11:51 38.86003 -77.03857 29 ft 124 kts 174°
2026-05-05 11:52 38.85272 -77.03786 19 ft 70 kts 174°
2026-05-05 11:52 38.85016 -77.03761 19 ft 16 kts 176°
2026-05-05 11:52 38.84917 -77.03765 19 ft 11 kts 202°
2026-05-05 11:52 38.84882 -77.03827 19 ft 7 kts 258°
2026-05-05 11:53 38.84880 -77.03873 19 ft 5 kts 266°
2026-05-05 11:53 38.84871 -77.03921 20 ft 6 kts 242°
2026-05-05 11:53 38.84831 -77.03946 21 ft 7 kts 180°
2026-05-05 11:53 38.84771 -77.03955 21 ft 9 kts 197°
2026-05-05 11:54 38.84708 -77.03991 19 ft 10 kts 206°
2026-05-05 11:54 38.84644 -77.04031 19 ft 9 kts 205°
2026-05-05 11:54 38.84585 -77.04067 19 ft 9 kts 211°
2026-05-05 11:54 38.84539 -77.04126 19 ft 9 kts 246°
2026-05-05 11:55 38.84533 -77.04209 19 ft 8 kts 273°
2026-05-05 11:55 38.84546 -77.04286 19 ft 9 kts 295°
2026-05-05 11:55 38.84584 -77.04349 20 ft 8 kts 314°
2026-05-05 11:55 38.84629 -77.04399 21 ft 8 kts 327°
2026-05-05 11:56 38.84684 -77.04416 22 ft 8 kts
2026-05-05 11:56 38.84737 -77.04390 22 ft 7 kts 33°
2026-05-05 11:56 38.84774 -77.04348 23 ft 6 kts 58°
2026-05-05 11:56 38.84768 -77.04303 23 ft 4 kts 146°
2026-05-05 11:57 38.84736 -77.04295 22 ft 2 kts 170°
2026-05-05 11:57 38.84733 -77.04295 22 ft 0 kts 169°